Chongqing, China

4:29 AM CST on November 23, 2019 (GMT +0800)
Jiangbei

Weather History for ZUCK - September, 2019

Change the Weather History Date:

Saturday, September 28, 2019

  Actual Average (WUND) Record (WUND)
Temperature  
Mean Temperature 78 °F -  
Max Temperature 89 °F - - (-1)
Min Temperature 68 °F - - (-1)
Cooling Degree Days 14    
Growing Degree Days 28 (Base 50)    
Moisture  
Dew Point 63 °F    
Average Humidity 62    
Maximum Humidity 88    
Minimum Humidity 29    
Precipitation  
Precipitation 0.00 in - - ()
Sea Level Pressure  
Sea Level Pressure 30.05 in    
Wind  
Wind Speed 4 mph ()    
Max Wind Speed 11 mph    
Max Gust Speed -    
Visibility 4.3 miles    
Events      
Averages and records for this station are not official NWS values.
T = Trace of Precipitation, MM = Missing Value Source: Averaged Metar Reports

Daily Weather History Graph

Daily Weather History Graph

Search for Another Location

Airport or City:

Astronomy

Sep. 28, 2019 Rise Set
Actual Time 6:44 AM CST 6:43 PM CST
Civil Twilight 6:20 AM CST 7:07 PM CST
Nautical Twilight 5:53 AM CST 7:34 PM CST
Astronomical Twilight 5:25 AM CST 8:02 PM CST
Moon 5:50 AM CST (9/28) 6:43 PM CST (9/28)
Length of Visible Light 12h 46m
Length of Day
11h 58m
Waning Crescent, 1% of the Moon is Illuminated
Sep 28
Waning Crescent
Sep 29
New
Oct 6
First Quarter
Oct 14
Full
Oct 21
Last Quarter

Hourly Weather History & Observations

Time (CST) Temp. Heat Index Dew Point Humidity Pressure Visibility Wind Dir Wind Speed Gust Speed Precip Events Conditions
12:00 AM 71.6 °F - 62.6 °F 73% 30.12 in - North 6.7 mph - N/A   Clear
1:00 AM 69.8 °F - 62.6 °F 78% 30.12 in - North 6.7 mph - N/A   Clear
2:00 AM 71 °F - 64 °F 73% 30.06 in - NW 4.5 mph - -   Mist
2:00 AM 69.8 °F - 62.6 °F 78% 30.12 in - North 6.7 mph - N/A   Clear
3:00 AM 69.8 °F - 62.6 °F 78% 30.09 in - NE 4.5 mph - N/A   Clear
4:00 AM 69.8 °F - 62.6 °F 78% 30.09 in - Calm Calm - N/A   Clear
5:00 AM 70 °F - 65 °F 79% 30.03 in 3 mi NW 2.2 mph - -   Mist
5:00 AM 69.8 °F - 62.6 °F 78% 30.09 in - Calm Calm - N/A   Clear
6:00 AM 68.0 °F - 62.6 °F 83% 30.09 in - Calm Calm - N/A   Clear
7:00 AM 68.0 °F - 64.4 °F 88% 30.09 in 5.0 mi Variable 2.2 mph - N/A   Partly Cloudy
8:00 AM 70 °F - 65 °F 81% 30.07 in 3 mi NW 2.2 mph - -   Mist
8:00 AM 71.6 °F - 66.2 °F 83% 30.12 in 5.0 mi Calm Calm - N/A   Partly Cloudy
9:00 AM 71.6 °F - 64.4 °F 78% 30.15 in 3.7 mi North 4.5 mph - N/A   Unknown
10:00 AM 77.0 °F - 64.4 °F 65% 30.15 in 3.7 mi Variable 2.2 mph - N/A   Unknown
11:00 AM 80 °F - 64 °F 49% 30.07 in - SSE 4.5 mph - -   Mist
11:00 AM 78.8 °F - 64.4 °F 61% 30.12 in 3.7 mi ESE 4.5 mph - N/A   Unknown
12:00 PM 80.6 °F 82.7 °F 66.2 °F 61% 30.12 in 5.0 mi ESE 4.5 mph - N/A   Unknown
1:00 PM 84.2 °F 85.6 °F 64.4 °F 51% 30.06 in - ESE 4.5 mph - N/A   Clear
2:00 PM 87 °F - 62 °F 33% 29.97 in 5 mi SE 4.5 mph - -  
2:00 PM 86.0 °F 86.6 °F 62.6 °F 45% 30.04 in - ENE 4.5 mph - N/A   Clear
3:00 PM 87.8 °F 87.6 °F 60.8 °F 40% 30.01 in - SW 4.5 mph - N/A   Clear
4:00 PM 87.8 °F 87.6 °F 60.8 °F 40% 29.98 in - Variable 4.5 mph - N/A   Clear
5:00 PM 89 °F - 61 °F 29% 29.89 in 7 mi NNW 2.2 mph - -  
5:00 PM 87.8 °F 87.6 °F 60.8 °F 40% 29.98 in - Variable 2.2 mph - N/A   Clear
6:00 PM 86.0 °F 86.1 °F 60.8 °F 43% 29.98 in - Calm Calm - N/A   Clear
7:00 PM 80.6 °F 81.8 °F 62.6 °F 54% 29.98 in - WNW 6.7 mph - N/A   Clear
8:00 PM 80 °F - 63 °F 47% 29.92 in 4 mi NW 4.5 mph - -   Mist
8:00 PM 80.6 °F 81.8 °F 62.6 °F 54% 29.98 in - North 8.9 mph - N/A   Clear
9:00 PM 77.0 °F - 62.6 °F 61% 30.01 in - North 8.9 mph - N/A   Clear
10:00 PM 77.0 °F - 62.6 °F 61% 30.04 in - North 8.9 mph - N/A   Clear
11:00 PM 76 °F - 65 °F 60% 29.96 in 4 mi NW 4.5 mph - -   Mist
11:00 PM 75.2 °F - 62.6 °F 65% 30.04 in - North 11.2 mph - N/A   Clear